Stations météo

Publicité
Agen, France (7524): Température de l'air & dewpoint: 25.04.2017 04:00:00 - 01.05.2017 04:00:00 (CEST)Agen, France (7524): Température de l'air 5cm: 25.04.2017 04:00:00 - 01.05.2017 04:00:00 (CEST)Agen, France (7524): Température de l'air -20cm & Température de l'air -100cm: 25.04.2017 04:00:00 - 01.05.2017 04:00:00 (CEST)Agen, France (7524): Vitesse du vent & gusts: 25.04.2017 04:00:00 - 01.05.2017 04:00:00 (CEST)Agen, France (7524): Direction du vent: 25.04.2017 04:00:00 - 01.05.2017 04:00:00 (CEST)Agen, France (7524): reduced air pressure: 25.04.2017 04:00:00 - 01.05.2017 04:00:00 (CEST)Agen, France (7524): visibility: 25.04.2017 04:00:00 - 01.05.2017 04:00:00 (CEST)Agen, France (7524): Ensoleillement: 25.04.2017 04:00:00 - 01.05.2017 04:00:00 (CEST)Agen, France (7524): Quantités de précipitations: 25.04.2017 04:00:00 - 01.05.2017 04:00:00 (CEST)
Date & Time tt [°C] td [°C] tt 5cm [°C] tt -20cm [°C] tt -100cm [°C] ff [km/h] ff [knt] fx [km/h] fx [knt] dd ppp [hPa] vv [km] sd [min] rr [mm]
01.05.2017 04:00:00 6,8 4,5 5,1 11,7 12,3 16 9 32 17 SW 1015,2 60 0 0,2
01.05.2017 03:00:00 7,4 4,7 5,0 11,8 12,3 18 10 34 18 WSW 1014,8 60 0 0,0
01.05.2017 02:00:00 7,1 4,2 5,1 11,8 12,3 13 7 33 18 SW 1014,2 60 0 0,0
01.05.2017 01:00:00 7,7 5,2 5,8 11,8 12,3 14 8 26 14 SW 1013,3 60 0 0,0
01.05.2017 00:00:00 8,3 5,8 6,2 11,9 12,3 11 6 28 15 WSW 1013,1 58 0 0,2
30.04.2017 23:00:00 7,8 5,8 6,4 11,9 12,3 13 7 19 10 S 1012,5 60 0 0,0
30.04.2017 22:00:00 8,4 6,2 7,0 11,9 12,3 13 7 21 11 S 1011,9 60 0 0,0
30.04.2017 21:00:00 8,4 5,9 7,1 12,0 12,3 13 7 27 15 SSW 1011,0 60 14 0,0
30.04.2017 20:00:00 8,1 5,2 7,0 12,0 12,3 12 6 24 13 SW 1009,6 60 0 0,0
30.04.2017 19:00:00 8,0 5,3 6,8 12,0 12,3 6 3 28 15 SW 1009,0 58 0 0,2
30.04.2017 18:00:00 7,8 5,1 7,1 11,9 12,3 20 11 60 33 W 1009,0 12 0 2,6
30.04.2017 17:00:00 8,2 5,8 7,9 11,9 12,3 48 26 76 41 WNW 1008,3 13 0 1,2
30.04.2017 16:00:00 11,1 8,0 10,9 11,8 12,3 33 18 70 38 WNW 1006,4 20 7 0,0
30.04.2017 15:00:00 16,3 11,2 13,5 11,7 12,3 22 12 44 24 W 1003,7 17 0 0,4
30.04.2017 14:00:00 20,3 9,2 24,2 11,7 12,3 11 6 37 20 S 1002,1 18 2 0,0
30.04.2017 13:00:00 20,4 10,5 22,7 11,6 12,3 26 14 42 23 SE 1001,7 54 23 0,0
30.04.2017 12:00:00 17,5 10,1 19,8 11,6 12,3 24 13 40 21 ESE 1002,5 60 2 0,0
30.04.2017 11:00:00 17,1 10,2 17,4 11,7 12,3 21 12 35 19 ESE 1003,7 44 53 0,0
30.04.2017 10:00:00 13,2 8,3 13,3 11,7 12,3 25 13 35 19 ESE 1004,7 53 41 0,0
30.04.2017 09:00:00 10,7 6,3 9,6 11,7 12,3 14 8 27 15 ESE 1006,1 49 5 0,0
30.04.2017 08:00:00 9,4 5,4 6,9 11,7 12,3 19 11 28 15 ESE 1006,2 38 5 0,0
30.04.2017 07:00:00 8,7 4,5 6,8 11,8 12,3 18 10 33 18 ESE 1006,5 47 0 0,0
30.04.2017 06:00:00 8,8 4,8 5,8 11,8 12,3 19 11 29 16 ESE 1006,8 47 0 0,0
30.04.2017 05:00:00 8,4 5,0 5,8 11,8 12,4 17 9 27 15 ESE 1007,1 41 0 0,0
30.04.2017 04:00:00 8,9 5,1 6,1 11,8 12,3 18 10 26 14 ESE 1007,4 43 0 0,0
30.04.2017 03:00:00 9,1 6,0 6,4 11,9 12,4 16 9 23 12 ESE 1007,8 39 0 0,0
30.04.2017 02:00:00 9,6 5,9 6,5 11,9 12,4 16 9 21 12 ESE 1008,2 48 0 0,0
30.04.2017 01:00:00 10,5 4,8 7,0 11,9 12,3 16 9 26 14 ESE 1008,7 60 0 0,0
30.04.2017 00:00:00 12,5 4,0 8,1 11,9 12,4 15 8 28 15 SE 1009,0 60 0 0,0
29.04.2017 23:00:00 13,7 2,9 7,8 11,8 12,4 17 9 28 15 ESE 1009,2 60 0 0,0
29.04.2017 22:00:00 14,5 1,0 6,7 11,8 12,4 9 5 18 10 SSE 1009,1 60 0 0,0
29.04.2017 21:00:00 15,5 1,9 9,9 11,7 12,4 6 3 15 8 ESE 1008,4 60 1 0,0
29.04.2017 20:00:00 16,9 1,3 15,3 11,6 12,4 9 5 19 10 SE 1008,5 60 0 0,0
29.04.2017 19:00:00 18,0 0,1 18,5 11,5 12,4 14 8 24 13 ESE 1009,0 60 0 0,0
29.04.2017 18:00:00 18,4 0,0 20,6 11,4 12,4 18 10 34 19 ESE 1009,1 60 30 0,0
29.04.2017 17:00:00 19,1 0,6 29,4 11,2 12,4 18 10 36 19 SE 1009,6 36 60 0,0
29.04.2017 16:00:00 19,0 1,5 32,8 11,1 12,4 17 9 31 17 E 1010,6 33 60 0,0
29.04.2017 15:00:00 17,9 0,5 34,7 11,0 12,4 13 7 30 16 E 1011,5 27 60 0,0
29.04.2017 14:00:00 16,9 2,8 32,8 11,0 12,4 15 8 32 17 ESE 1012,3 26 60 0,0
29.04.2017 13:00:00 15,7 3,5 30,1 11,0 12,4 17 9 28 15 E 1013,5 27 60 0,0
29.04.2017 12:00:00 14,6 4,3 25,5 11,0 12,4 15 8 27 15 E 1014,3 29 60 0,0
29.04.2017 11:00:00 12,5 4,2 16,3 11,0 12,4 12 7 23 12 ESE 1015,0 22 60 0,0
29.04.2017 10:00:00 9,5 3,9 7,7 11,1 12,4 13 7 19 11 ESE 1015,5 10 60 0,0
29.04.2017 09:00:00 6,1 2,7 0,2 11,1 12,4 11 6 15 8 ESE 1016,0 17 60 0,0
29.04.2017 08:00:00 3,1 2,1 -4,2 11,2 12,4 8 5 11 6 ESE 1016,3 18 55 0,0
29.04.2017 07:00:00 0,7 0,0 -5,2 11,3 12,4 6 3 9 5 SE 1016,5 10 0 0,0
29.04.2017 06:00:00 0,4 -0,5 -5,3 11,4 12,4 6 4 8 5 E 1016,7 16 0 0,0
29.04.2017 05:00:00 0,8 -0,4 -4,7 11,5 12,4 4 2 6 4 E 1017,1 34 0 0,0
29.04.2017 04:00:00 2,1 1,1 -4,4 11,6 12,4 5 3 7 4 ESE 1017,2 29 0 0,0
29.04.2017 03:00:00 2,6 1,0 -3,9 11,6 12,4 5 3 8 4 ESE 1017,6 38 0 0,0
29.04.2017 02:00:00 2,8 0,8 -3,7 11,7 12,4 3 1 6 3 ESE 1018,3 45 0 0,0
29.04.2017 01:00:00 3,0 0,7 -3,2 11,8 12,5 4 2 7 4 SE 1018,7 53 0 0,0
29.04.2017 00:00:00 4,5 1,5 -2,4 11,8 12,5 0 0 4 2 N 1018,8 59 0 0,0
28.04.2017 23:00:00 5,7 2,0 -1,9 11,8 12,5 0 0 4 2 N 1018,9 59 0 0,0
28.04.2017 22:00:00 7,8 1,2 -0,6 11,8 12,5 0 0 5 3 N 1018,7 60 0 0,0
28.04.2017 21:00:00 11,3 0,4 4,0 11,7 12,5 5 3 17 9 ENE 1018,5 60 32 0,0
28.04.2017 20:00:00 13,9 0,2 15,2 11,6 12,5 11 6 20 11 NE 1018,3 60 60 0,0
28.04.2017 19:00:00 14,8 1,3 19,9 11,5 12,5 8 5 23 12 NNE 1018,5 60 56 0,0
28.04.2017 18:00:00 15,4 1,1 19,7 11,4 12,5 11 6 23 12 NNW 1018,6 56 43 0,0
28.04.2017 17:00:00 14,9 1,1 21,7 11,3 12,5 12 7 21 12 N 1018,6 60 41 0,0
28.04.2017 16:00:00 14,4 1,0 21,8 11,3 12,5 11 6 24 13 N 1019,2 60 32 0,0
28.04.2017 15:00:00 13,4 -0,3 21,9 11,2 12,5 7 4 22 12 N 1019,7 52 18 0,0
28.04.2017 14:00:00 13,0 0,0 21,5 11,1 12,5 11 6 25 13 NW 1019,9 60 29 0,0
28.04.2017 13:00:00 12,9 1,2 20,1 11,1 12,5 9 5 18 10 NNW 1020,2 58 40 0,0
28.04.2017 12:00:00 12,3 2,7 24,4 11,2 12,5 9 5 17 9 N 1020,9 60 60 0,0
28.04.2017 11:00:00 10,9 2,7 14,8 11,2 12,5 5 3 12 6 WNW 1021,1 47 60 0,0
28.04.2017 10:00:00 8,3 2,7 6,4 11,3 12,5 4 2 7 4 NNW 1021,2 36 60 0,0
28.04.2017 09:00:00 5,6 2,2 -1,2 11,4 12,5 0 0 4 2 N 1021,4 25 60 0,0
28.04.2017 08:00:00 2,5 1,0 -4,1 11,4 12,5 2 1 5 3 E 1021,4 15 46 0,0
28.04.2017 07:00:00 0,9 -0,1 -4,1 11,5 12,5 3 2 5 3 WNW 1021,1 19 0 0,0
28.04.2017 06:00:00 0,5 -0,8 -3,7 11,6 12,5 4 2 7 4 WSW 1020,9 22 0 0,0
28.04.2017 05:00:00 2,0 0,5 -3,3 11,7 12,5 4 2 7 4 WSW 1020,9 23 0 0,0
28.04.2017 04:00:00 2,3 0,0 -3,7 11,7 12,5 4 2 6 4 WNW 1020,9 32 0 0,0
28.04.2017 03:00:00 3,6 0,8 -3,1 11,8 12,5 5 3 9 5 W 1020,8 36 0 0,0
28.04.2017 02:00:00 4,0 0,7 -2,7 11,9 12,5 6 3 9 5 WNW 1021,0 44 0 0,0
28.04.2017 01:00:00 5,1 0,7 -1,6 11,9 12,5 6 3 12 7 W 1021,0 55 0 0,0
28.04.2017 00:00:00 5,8 0,3 -2,7 11,9 12,5 8 4 13 7 WNW 1020,8 58 0 0,0
27.04.2017 23:00:00 5,2 -0,4 -0,7 11,9 12,5 5 3 9 5 WNW 1020,6 60 0 0,0
27.04.2017 22:00:00 8,0 -0,5 0,3 12,0 12,6 6 3 17 9 WNW 1019,8 60 0 0,0
27.04.2017 21:00:00 8,7 -1,2 3,5 11,9 12,5 8 4 27 15 NNW 1019,1 60 31 0,0
27.04.2017 20:00:00 12,2 -1,4 12,7 11,9 12,5 18 10 31 17 NW 1018,3 46 56 0,0
27.04.2017 19:00:00 12,6 -0,7 15,8 11,9 12,6 17 9 33 18 NNW 1017,8 60 55 0,0
27.04.2017 18:00:00 12,8 -2,7 20,1 11,8 12,5 24 13 40 22 N 1017,6 46 56 0,0
27.04.2017 17:00:00 13,5 0,5 17,0 11,7 12,5 18 10 36 20 N 1017,4 56 44 0,0
27.04.2017 16:00:00 12,3 -0,6 19,6 11,7 12,5 22 12 37 20 N 1017,5 60 43 0,0
27.04.2017 15:00:00 11,8 1,4 15,5 11,7 12,6 14 7 32 18 NNW 1018,0 60 26 0,0
27.04.2017 14:00:00 11,4 0,2 18,1 11,7 12,5 15 8 29 16 NW 1018,2 60 31 0,0
27.04.2017 13:00:00 10,6 0,3 15,0 11,7 12,5 15 8 36 20 N 1018,4 60 25 0,0
27.04.2017 12:00:00 10,3 2,4 19,4 11,7 12,5 12 7 26 14 NNW 1018,5 59 49 0,0
27.04.2017 11:00:00 9,2 3,2 13,8 11,8 12,5 11 6 20 11 NW 1018,5 46 57 0,0
27.04.2017 10:00:00 6,7 2,8 5,7 11,8 12,5 7 4 13 7 NW 1018,6 32 60 0,0
27.04.2017 09:00:00 4,6 2,3 0,2 11,9 12,5 8 5 12 6 WNW 1018,5 14 58 0,0
27.04.2017 08:00:00 2,5 1,5 -3,2 12,0 12,5 8 4 11 6 W 1018,3 16 36 0,0
27.04.2017 07:00:00 0,2 -0,4 -2,9 12,2 12,6 6 3 10 6 W 1017,6 3,1 0 0,0
27.04.2017 06:00:00 0,4 -0,5 -4,0 12,3 12,6 6 3 8 5 WNW 1017,4 8 0 0,0
27.04.2017 05:00:00 0,8 -0,2 -3,7 12,3 12,5 3 2 7 4 W 1017,7 11 0 0,0
27.04.2017 04:00:00 1,2 0,3 -3,9 12,4 12,5 3 2 4 2 NW 1017,6 17 0 0,0
27.04.2017 03:00:00 1,1 -0,4 -3,4 12,5 12,6 0 0 8 5 N 1017,9 18 0 0,0
27.04.2017 02:00:00 1,8 0,8 -3,2 12,5 12,5 4 2 5 3 WSW 1017,7 18 0 0,0
27.04.2017 01:00:00 2,7 0,3 -2,2 12,6 12,5 3 2 8 5 SSE 1017,9 19 0 0,0
27.04.2017 00:00:00 3,8 1,2 -1,5 12,6 12,5 0 0 9 5 N 1018,0 28 0 0,0
26.04.2017 23:00:00 4,8 2,3 -1,5 12,6 12,5 4 2 6 3 W 1017,6 28 0 0,0
26.04.2017 22:00:00 6,7 2,0 1,5 12,7 12,5 4 2 12 6 W 1017,0 48 0 0,0
26.04.2017 21:00:00 8,2 2,2 3,0 12,7 12,5 4 2 13 7 NW 1016,1 57 20 0,0
26.04.2017 20:00:00 9,7 1,6 8,2 12,7 12,5 8 4 26 14 N 1015,5 59 11 0,0
26.04.2017 19:00:00 11,3 1,2 12,8 12,6 12,5 12 6 21 12 NW 1015,0 52 37 0,0
26.04.2017 18:00:00 10,7 2,0 13,1 12,6 12,5 13 7 26 14 NW 1015,0 49 19 0,0
26.04.2017 17:00:00 11,1 2,9 16,3 12,6 12,5 15 8 30 16 NNW 1014,7 55 24 0,0
26.04.2017 16:00:00 10,8 2,4 - - - 18 10 29 16 NNW 1014,8 45 - 0,0
26.04.2017 15:00:00 10,4 3,2 12,9 12,6 12,5 13 7 29 16 NNW 1014,5 29 0 0,0
26.04.2017 14:00:00 9,5 3,5 10,7 12,7 12,5 22 12 32 17 NW 1014,3 44 0 0,0
26.04.2017 13:00:00 8,4 3,2 9,5 12,7 12,5 16 9 29 15 NW 1014,2 33 0 0,0
26.04.2017 12:00:00 7,3 3,3 8,3 12,8 12,5 16 9 28 15 NW 1013,8 32 0 0,0
26.04.2017 11:00:00 6,8 3,9 7,5 12,8 12,5 16 9 24 13 NW 1013,5 20 0 0,0
26.04.2017 10:00:00 6,2 4,0 6,9 12,9 12,5 16 9 29 16 NW 1013,0 19 0 0,2
26.04.2017 09:00:00 6,0 4,0 6,4 12,9 12,5 15 8 26 14 NW 1012,5 16 0 0,0
26.04.2017 08:00:00 6,0 4,0 6,4 12,9 12,5 20 11 29 16 NW 1011,6 13 0 0,0
26.04.2017 07:00:00 6,5 4,5 6,6 13,0 12,5 15 8 25 13 NNW 1010,6 17 0 0,0
26.04.2017 06:00:00 6,7 4,9 7,0 13,0 12,4 14 8 24 13 NW 1010,1 19 0 0,0
26.04.2017 05:00:00 7,1 5,6 7,5 13,1 12,5 14 8 24 13 NW 1010,2 16 0 0,0
26.04.2017 04:00:00 7,8 6,3 8,1 13,1 12,5 13 7 21 12 NNW 1009,8 17 0 0,0
26.04.2017 03:00:00 8,3 6,9 8,5 13,2 12,5 11 6 19 11 NW 1009,8 16 0 0,0
26.04.2017 02:00:00 8,8 7,6 9,1 13,2 12,4 10 6 23 13 NNW 1010,1 12 0 0,0
26.04.2017 01:00:00 9,7 8,8 9,8 13,2 12,5 11 6 31 17 NW 1009,8 4,5 0 1,2
26.04.2017 00:00:00 10,5 9,4 10,2 13,2 12,4 6 3 19 10 W 1009,4 3,7 0 0,4
25.04.2017 23:00:00 10,9 9,5 9,9 13,2 12,4 11 6 20 11 W 1009,5 16 0 0,0
25.04.2017 22:00:00 11,0 8,9 10,1 13,3 12,5 11 6 21 11 W 1008,6 26 0 0,0
25.04.2017 21:00:00 11,2 9,5 10,1 13,3 12,5 5 3 27 15 WNW 1008,0 16 0 0,2
25.04.2017 20:00:00 12,0 10,7 11,7 13,2 12,4 12 6 23 12 W 1007,8 14 0 0,0
25.04.2017 19:00:00 12,2 10,6 12,2 13,2 12,4 16 8 31 17 WNW 1007,8 17 0 0,4
25.04.2017 18:00:00 12,8 11,7 12,6 13,2 12,4 7 4 23 12 WNW 1007,2 3,8 0 1,4
25.04.2017 17:00:00 13,2 11,3 13,8 13,2 12,4 7 4 28 15 NW 1007,1 12 0 0,0
25.04.2017 16:00:00 13,8 12,4 14,6 13,2 12,4 8 5 16 8 WNW 1007,3 12 0 0,6
25.04.2017 15:00:00 13,4 11,3 14,5 13,2 12,4 6 3 13 7 NW 1007,5 16 0 0,0
25.04.2017 14:00:00 12,3 10,7 13,7 13,2 12,4 10 6 13 7 NW 1008,6 12 0 0,0
25.04.2017 13:00:00 12,1 10,2 11,8 13,2 12,4 6 3 9 5 NNE 1008,8 12 0 0,8
25.04.2017 12:00:00 11,5 9,2 11,8 13,2 12,4 5 3 10 5 W 1009,8 19 0 0,8
25.04.2017 11:00:00 11,8 9,2 11,6 13,2 12,4 0 0 22 12 N 1010,2 6 0 2,0
25.04.2017 10:00:00 12,6 11,3 12,1 13,2 12,4 14 8 25 14 SSE 1009,7 6 0 1,6
25.04.2017 09:00:00 12,8 11,4 12,0 13,2 12,4 16 9 23 13 ESE 1009,7 11 0 0,0
25.04.2017 08:00:00 12,4 11,0 11,0 13,3 12,4 6 4 21 11 E 1010,3 13 0 0,2
25.04.2017 07:00:00 12,2 10,6 10,2 13,3 12,4 6 4 11 6 NE 1010,1 14 0 0,0
25.04.2017 06:00:00 11,9 10,1 10,6 13,4 12,4 5 3 18 10 SE 1010,1 15 0 0,0
25.04.2017 05:00:00 12,3 10,0 10,4 13,4 12,4 10 5 18 10 E 1010,0 18 0 0,0
25.04.2017 04:00:00 12,0 10,1 7,6 13,4 12,4 12 6 20 11 ESE 1010,1 16 0 0,0

tt = Température de l'air
td = dewpoint
tt 5cm = Température de l'air 5cm
tt -20cm = Température de l'air -20cm
tt -100cm = Température de l'air -100cm
ff = Vitesse du vent
fx = gusts
dd = Direction du vent
ppp = reduced air pressure
vv = visibility
sd = Ensoleillement
rr = Quantités de précipitations

stations d'obs. à proximité